Location: Beadle
(51.4667°N, 109.0000°W)
Time: 04:07:37
(UTC+00:00)

Altair - Pass Details

Date: 04 June 2022
Orbit: 1501 x 1682 km, 47.2° (Epoch: 30 June)

Event Time Altitude Azimuth Distance (km) Brightness Sun altitude
Rises 20:56:16 0° 220° (SW) 4,758 10.6 55.0°
Reaches altitude 10° 20:59:29 10° 214° (SW) 3,801 10.3 54.6°
Maximum altitude 21:08:26 43° 147° (SSE) 2,161 9.0 53.6°
Drops below altitude 10° 21:17:39 10° 81° (E) 3,928 9.4 52.5°
Sets 21:21:02 0° 75° (ENE) 4,930 9.8 52.1°
